User: anonymous   Login
Location: Unspecified
(0.0000°N, 0.0000°E)
Time: 19:57:41
(UTC+00:00)
Language:

Explorer 27 - Orbit

View from above orbital plane
View from above orbital plane
View from above satellite
View from above satellite

Ground track
Ground track

The orbit data is extracted from the following two-line orbital elements,

1  1328U 65032A   18016.89151425 -.00000062 +00000-0 +30150-4 0  9993
2  1328 041.1821 203.7226 0250812 160.5211 200.5329 13.38552323576890
Epoch (UTC): 16 January 2018 21:23:46
Eccentricity: 0.0250812
inclination: 41.1821°
perigee height: 927 km
apogee height: 1302 km
right ascension of ascending node: 203.7226°
argument of perigee: 160.5211°
revolutions per day: 13.38552323
mean anomaly at epoch: 200.5329°
orbit number at epoch: 57689

The dashed part of the orbit path shows where the satellite is in the earth's shadow,  

DLR